TimeGMT,TemperatureF,Dew PointF,Humidity,Sea Level PressureIn,VisibilityMPH,Wind Direction,Wind SpeedMPH,Gust SpeedMPH,PrecipitationIn,Events,Conditions,WindDirDegrees,DateUTC
12:00 AM,42,42,100,29.41,,ESE,13.4,,,,,110,2013-03-07 00:00:00
6:00 AM,43,43,99,29.36,0,East,13.4,,,Fog,Heavy Fog,100,2013-03-07 06:00:00
8:00 AM,42.8,42.8,100,29.30,0.3,ESE,15.0,-,N/A,Fog,Fog,110,2013-03-07 08:00:00
8:30 AM,44.6,42.8,93,29.30,0.3,ESE,15.0,-,N/A,Fog,Fog,110,2013-03-07 08:30:00
9:00 AM,44.6,44.6,100,29.30,0.3,East,16.1,-,N/A,Fog,Fog,100,2013-03-07 09:00:00
9:30 AM,44.6,44.6,100,29.30,0.3,ESE,16.1,-,N/A,Fog,Fog,110,2013-03-07 09:30:00
10:00 AM,44.6,44.6,100,29.30,0.3,ESE,15.0,-,N/A,Fog-Rain,Light Rain,110,2013-03-07 10:00:00
10:30 AM,44.6,44.6,100,29.30,0.4,East,16.1,27.6,N/A,Fog-Rain,Light Rain,100,2013-03-07 10:30:00
11:00 AM,44.6,44.6,100,29.30,0.3,ESE,16.1,-,N/A,Fog-Rain,Light Rain,110,2013-03-07 11:00:00
11:30 AM,44.6,44.6,100,29.30,0.3,East,13.8,-,N/A,Fog,Fog,100,2013-03-07 11:30:00
12:00 PM,45,45,99,29.32,1,East,13.4,,,Fog,Light Fog,100,2013-03-07 12:00:00
12:00 PM,44.6,44.6,100,29.30,0.9,East,13.8,-,N/A,,Overcast,100,2013-03-07 12:00:00
12:30 PM,44.6,44.6,100,29.30,1.1,East,16.1,27.6,N/A,,Overcast,100,2013-03-07 12:30:00
1:00 PM,44.6,44.6,100,29.27,1.1,East,16.1,-,N/A,,Overcast,100,2013-03-07 13:00:00
1:30 PM,44.6,44.6,100,29.27,1.1,East,15.0,-,N/A,,Overcast,100,2013-03-07 13:30:00
2:00 PM,44.6,44.6,100,29.27,1.1,East,13.8,-,N/A,,Overcast,100,2013-03-07 14:00:00
2:30 PM,44.6,44.6,100,29.24,1.1,ESE,16.1,-,N/A,,Overcast,110,2013-03-07 14:30:00
3:00 PM,44.6,44.6,100,29.24,1.1,ESE,16.1,28.8,N/A,,Overcast,110,2013-03-07 15:00:00
3:30 PM,44.6,44.6,100,29.24,1.6,ESE,16.1,27.6,N/A,,Overcast,110,2013-03-07 15:30:00
4:00 PM,44.6,44.6,100,29.24,1.7,ESE,16.1,-,N/A,,Overcast,110,2013-03-07 16:00:00
4:30 PM,44.6,44.6,100,29.24,1.9,East,16.1,-,N/A,,Overcast,100,2013-03-07 16:30:00
5:00 PM,44.6,44.6,100,29.24,2.2,East,13.8,-,N/A,,Overcast,100,2013-03-07 17:00:00
5:30 PM,44.6,44.6,100,29.24,2.5,East,16.1,-,N/A,Rain,Light Rain,100,2013-03-07 17:30:00
6:00 PM,45,44,96,29.25,2,East,13.4,,,Rain,Light Rain,100,2013-03-07 18:00:00